Regional Weather Roundup
Issued by NWS Cleveland, OH

Current Version | Previous Version | Text Only | Print | Product List | Glossary On
Versions: 1 2 3 4 5 6 7 8 9 10 11 12 13 14 15 16 17 18 19 20 21 22 23 24 25 26 27 28 29 30 31 32 33 34 35 36 37 38 39 40 41 42 43 44 45 46 47 48 49 50
000 ASUS41 KCLE 012112 RWRCLE OHIO REGIONAL WEATHER ROUNDUP NATIONAL WEATHER SERVICE WILMINGTON, OH 500 PM EDT SAT OCT 01 2016 NOTE: "FAIR" INDICATES FEW OR NO CLOUDS BELOW 12,000 FEET WITH NO SIGNIFICANT WEATHER AND/OR OBSTRUCTIONS TO VISIBILITY. OHZ001>008-015>018-024>027-034-035-043-044-012200- NORTHWEST OHIO CITY SKY/WX TMP DP RH WIND PRES REMARKS DEFIANCE FAIR 64 51 62 S8 29.99S FINDLAY FAIR 66 50 56 SW8 29.99R TOLEDO EXPRESS CLOUDY 63 60 90 CALM 29.99F TOLEDO EXEC CLOUDY 66 56 70 SE8 30.00S LIMA FAIR 65 50 58 S10 29.99F $$ OHZ009>014-019>023-028>033-038-089-012200- NORTHEAST OHIO CITY SKY/WX TMP DP RH WIND PRES REMARKS CLE-HOPKINS CLOUDY 69 52 54 SW6 30.04S CLE-LAKEFRONT PTSUNNY 68 59 73 N6 30.01F CUY CO. ARPT PTSUNNY 66 63 88 NW7 30.03F LORAIN-ELYRIA PTSUNNY 67 50 54 W7 30.03S ASHTABULA CLOUDY 63 62 97 N3 30.05S AKRON-CANTON PTSUNNY 67 53 61 SW7 30.04S WOOSTER PTSUNNY 68 51 54 S5 30.04S MANSFIELD CLOUDY 65 52 62 S12 30.03F YOUNGSTOWN PTSUNNY 65 58 78 CALM 30.04F $$ OHZ042-051>053-060>062-070>072-077>081-012200- SOUTHWEST OHIO CITY SKY/WX TMP DP RH WIND PRES REMARKS CINC-COVINGTON PTSUNNY 66 56 70 SW5 30.02S CINC-LUNKEN PTSUNNY 66 57 72 S8 30.02S HAMILTON FAIR 69 53 56 SW7 30.02S DAYTON PTSUNNY 64 51 62 SW12 30.02S WRIGHT-PAT AFB MOSUNNY 67 51 56 SW8 30.00F DAYTON GENERAL PTSUNNY 66 52 60 SW7 30.01S WILMINGTON CLOUDY 64 55 72 S10 30.02R $$ OHZ036-037-039>041-045>050-054>059-063>069-073>076-082>088-012200- CENTRAL AND SOUTHEAST OHIO CITY SKY/WX TMP DP RH WIND PRES REMARKS COLUMBUS PTSUNNY 66 55 67 S10 30.02S OSU AIRPORT CLOUDY 66 56 70 S7 30.01F BOLTON FIELD CLOUDY 66 55 68 S12 30.02F RICKENBACK AFB CLOUDY 65 55 69 S12 30.02S NEWARK CLOUDY 66 53 63 SW7 30.03S MARION CLOUDY 66 52 60 S10 30.02S LANCASTER CLOUDY 65 55 70 S9 30.04S ZANESVILLE PTSUNNY 67 53 61 S7 30.04S NEW PHILLY FAIR 69 55 60 SW5 30.04S $$

USA.gov is the U.S. government's official web portal to all federal, state and local government web resources and services.